Theta_e
304 305 305 305 306 305 304 304 305 305 304 304 304 304 305 306 308 317 319 319 318 318 323 320 320 322 324 322 321 323 324 327 322 321 319 319 322 324 324 323 325 323 322 323 322 327 334 327 326 329 327 325 324 324
304 304 305 305 305 304 304 304 304 304 304 304 304 304 305 305 307 309 317 318 316 316 321 320 320 317 322 320 320 321 324 325 325 324 324 321 324 320 322 324 319 321 321 325 325 326 324 324 324 324 324 323 323 323
303 303 304 303 303 303 303 303 304 304 304 304 304 304 305 305 307 309 312 317 318 321 321 322 321 316 318 318 319 321 325 325 325 322 323 317 320 315 319 320 322 321 320 320 321 323 322 322 322 322 321 321 322 322
303 303 303 303 303 303 303 304 304 304 304 304 304 304 306 305 307 310 319 318 317 319 321 321 320 320 319 318 319 322 322 322 321 321 321 316 318 319 318 318 317 319 319 320 320 321 322 321 320 321 321 321 320 320
303 303 303 303 303 304 304 304 305 305 305 304 304 305 305 306 308 312 318 319 318 316 319 322 322 320 319 317 316 320 320 321 322 322 318 317 319 317 316 315 316 319 317 318 321 321 321 320 320 319 318 318 318 320
304 303 303 303 304 304 304 307 310 310 307 304 304 306 306 307 310 318 320 319 319 315 317 317 322 319 319 319 320 320 321 321 322 322 320 320 321 319 316 316 320 321 322 322 321 321 320 320 319 318 318 319 319 319
305 304 303 303 304 304 305 307 310 310 310 305 306 307 309 309 310 314 319 317 314 312 320 318 319 321 320 320 321 322 322 322 321 321 320 319 320 320 314 316 321 321 321 321 320 320 319 319 318 318 317 318 318 318
304 304 303 303 304 305 306 306 310 309 308 308 309 310 311 310 312 316 316 314 313 313 318 315 318 320 320 321 321 321 321 321 321 320 320 319 319 318 315 317 322 322 322 320 318 318 318 318 317 317 318 318 317 316
304 303 303 303 305 305 304 305 310 309 308 310 311 312 313 313 316 318 317 316 313 313 319 319 319 320 320 320 321 322 321 316 320 318 318 319 315 317 316 322 320 319 318 317 317 317 317 317 318 318 317 316 314 315
304 303 304 304 304 305 305 307 311 311 311 313 314 316 317 317 315 314 316 316 316 317 318 316 319 321 319 319 322 321 321 319 318 317 320 317 317 320 321 321 318 317 317 317 317 316 315 317 317 317 315 314 315 315
304 303 303 304 305 305 305 307 307 310 312 313 314 316 314 315 316 317 318 317 318 316 318 317 318 319 321 320 318 321 319 317 318 316 317 317 317 319 319 318 317 317 316 316 316 317 316 316 316 316 315 314 315 315
304 303 304 305 305 305 305 306 308 310 310 310 311 312 314 316 317 317 315 317 316 318 319 318 320 322 321 319 318 320 318 317 321 318 318 318 314 320 319 318 318 318 318 317 316 316 316 316 316 316 316 315 315 316
303 303 303 304 304 305 306 306 306 309 311 312 314 315 317 316 311 318 317 318 317 319 321 320 319 321 320 320 321 318 320 319 318 318 319 320 321 321 320 320 320 320 318 317 317 316 316 315 315 315 315 316 316 316
303 303 303 304 305 306 306 306 307 309 310 313 315 310 314 316 315 316 316 318 319 321 321 321 323 321 321 319 319 319 317 317 319 318 320 316 320 322 322 321 320 319 319 317 317 316 316 316 315 316 315 316 316 316
304 304 306 305 307 307 306 307 310 310 310 313 314 313 315 316 316 316 317 318 319 320 320 321 320 320 317 318 317 318 321 319 316 313 315 317 319 319 318 317 317 317 319 317 316 317 316 315 315 315 315 316 315 315
305 305 305 306 307 306 306 306 309 311 311 312 314 315 315 316 316 317 318 318 319 317 318 320 318 319 320 318 320 321 321 318 319 316 316 315 316 315 315 318 319 318 317 317 316 316 315 315 315 316 317 316 314 314
305 305 306 305 305 305 306 307 310 312 313 315 315 315 315 315 315 316 317 318 319 320 320 319 319 319 316 318 320 319 321 317 316 317 316 316 317 318 319 318 318 317 317 316 316 315 316 316 315 316 316 316 315 313
304 305 305 304 305 306 309 309 310 313 315 315 315 314 314 315 317 318 317 317 318 319 320 318 319 318 318 319 317 317 319 318 318 319 318 318 318 318 317 317 317 317 316 315 315 314 314 314 315 315 316 315 315 313
304 303 304 305 306 306 309 312 311 313 314 314 315 315 316 317 317 319 318 320 320 321 319 317 316 317 317 319 319 319 319 319 318 318 319 317 317 317 316 315 316 314 315 315 314 314 313 314 315 314 314 315 315 313
304 306 306 307 306 307 308 310 313 314 315 316 315 315 316 317 317 319 319 320 320 318 317 317 317 316 317 318 318 319 318 317 317 317 318 317 316 316 315 315 316 315 315 315 314 314 314 315 315 316 315 314 314 315
305 307 307 307 307 306 307 310 312 313 314 315 315 317 317 317 319 320 320 319 320 319 316 317 317 319 319 319 318 318 318 317 315 315 315 316 315 314 315 314 314 314 315 315 315 315 314 314 314 314 314 315 314 313
306 306 306 307 307 309 310 310 311 312 313 314 314 316 317 318 319 320 320 318 318 319 319 319 319 319 319 318 317 314 314 315 315 316 314 315 315 315 315 315 315 314 314 314 313 314 314 314 313 313 313 314 315 314
305 305 307 307 308 309 309 311 312 315 315 318 319 320 320 322 321 321 320 320 320 318 316 318 319 319 317 311 313 313 315 315 315 315 315 315 315 315 316 316 315 314 314 314 314 313 313 314 313 313 313 312 312 315
306 306 308 309 309 309 311 314 315 316 318 319 319 321 320 320 321 321 319 322 320 319 317 317 317 318 315 314 315 316 316 316 314 313 313 313 314 315 315 315 314 314 314 314 314 314 314 314 314 312 313 310 311 312
308 306 307 308 311 313 315 317 318 320 319 319 319 321 321 322 321 321 322 321 319 319 317 313 314 315 315 317 317 315 316 316 316 314 315 315 314 314 314 314 314 312 313 312 312 312 313 313 313 312 312 310 310 311
306 307 309 312 313 315 317 318 318 319 319 319 321 319 319 319 322 320 320 321 319 319 317 315 316 316 316 317 316 315 315 315 315 315 316 315 314 314 314 314 314 312 311 311 311 311 311 311 312 311 310 310 310 310
307 310 311 311 313 315 316 317 317 319 320 321 321 321 319 319 320 320 320 321 320 318 315 315 315 316 316 315 315 315 315 314 314 315 316 317 316 314 314 311 309 309 309 309 310 310 311 310 310 310 311 310 311 311
309 310 311 313 315 315 316 316 317 318 319 319 318 320 323 324 320 321 321 320 319 317 315 315 315 315 316 315 314 314 314 314 316 316 316 317 316 314 314 313 312 312 311 310 311 310 310 309 310 311 310 310 311 311
309 310 312 313 314 316 317 317 317 317 319 318 319 320 320 318 321 320 320 320 318 316 315 315 315 316 315 316 315 315 316 315 315 316 316 316 316 315 314 314 312 313 313 313 312 312 312 311 311 311 311 311 311 311
310 310 313 315 315 315 316 317 317 317 318 318 318 320 321 321 322 321 318 318 320 316 315 315 315 315 315 315 315 316 316 315 315 316 316 316 314 314 314 314 312 313 312 313 313 312 312 312 312 312 312 312 313 312
313 313 314 314 315 315 315 316 316 316 317 318 318 319 320 320 319 319 319 319 320 320 317 315 315 315 315 315 316 316 316 316 316 316 316 315 314 313 313 313 312 312 312 311 312 312 313 313 313 313 312 312 313 313
312 313 314 315 315 316 316 316 316 317 317 317 317 317 317 318 318 318 318 318 319 320 321 319 316 315 316 316 317 316 315 316 317 316 315 314 315 315 315 314 313 312 312 312 312 311 312 312 313 313 313 312 312 312
314 314 314 315 316 317 316 317 317 318 318 318 318 318 319 318 319 319 320 319 321 320 320 321 317 316 316 316 316 316 315 314 314 316 314 314 314 312 312 314 314 313 314 314 312 312 313 313 313 313 313 312 312 312
Wind_Speed
17 18 18 18 18 18 18 18 18 18 18 17 16 15 13 12 8 4 4 9 11 5 3 6 8 5 4 6 3 6 3 7 4 4 2 2 1 2 3 5 3 4 2 1 3 4 2 14 5 6 7 9 13 15
17 17 17 17 17 17 17 17 17 17 18 18 16 14 12 10 7 6 3 6 9 8 6 4 4 6 1 4 4 3 3 2 2 3 1 1 3 3 1 1 5 4 4 4 4 3 2 22 20 15 13 13 12 10
17 17 17 17 17 17 17 18 18 18 18 17 16 14 11 9 7 6 6 12 5 4 9 9 8 3 3 2 3 2 3 3 3 3 4 2 1 3 2 1 2 4 2 4 5 5 13 19 17 16 14 12 9 9
16 16 17 17 16 16 17 17 18 18 18 17 15 13 10 8 6 4 4 6 7 6 3 1 5 4 3 5 6 5 6 5 3 1 2 2 1 1 2 3 4 2 4 4 3 3 9 17 14 11 9 10 11 12
16 16 15 15 16 17 17 18 19 19 18 17 14 11 9 6 3 2 3 4 7 6 3 8 6 7 3 4 4 8 5 3 3 1 2 2 2 2 3 3 4 2 5 4 3 1 5 3 7 10 11 13 14 13
15 16 15 15 16 15 17 19 20 20 18 16 13 10 8 5 1 5 3 0 5 8 3 3 2 10 8 3 5 5 6 3 1 1 2 2 3 2 2 2 2 18 18 11 7 6 3 5 9 13 15 16 12 13
15 16 16 15 15 16 18 21 22 20 16 13 11 9 7 5 2 3 1 3 6 6 3 6 6 9 7 5 5 5 6 4 2 0 2 1 2 3 3 3 15 18 16 12 6 1 2 5 8 17 18 18 20 25
15 16 15 14 14 16 19 21 22 20 15 12 10 8 5 3 1 1 2 4 6 3 3 1 4 3 11 4 3 9 6 7 5 4 2 2 2 2 1 3 18 14 9 5 3 4 3 9 15 14 14 15 21 27
14 14 15 12 13 16 19 19 19 18 13 10 7 4 2 0 2 3 6 7 6 4 2 2 1 3 10 7 4 5 5 2 4 4 5 5 1 2 6 20 14 10 6 4 2 2 6 11 8 11 16 21 26 30
13 13 12 11 12 17 18 16 18 16 11 9 5 3 1 5 9 7 2 1 2 3 3 4 5 3 8 6 2 1 2 1 1 5 3 3 4 12 15 16 15 10 8 4 2 4 8 8 11 14 18 20 23 28
12 12 11 10 12 16 16 17 19 18 11 8 5 3 7 8 5 2 2 4 4 3 5 7 7 3 1 3 2 1 2 1 1 4 4 1 3 6 21 18 14 13 11 4 2 7 7 10 13 20 21 26 28 32
11 11 10 12 14 15 16 15 17 14 11 10 10 12 6 2 3 2 2 3 3 4 5 5 7 9 2 2 3 3 2 2 3 3 2 2 3 18 21 18 13 7 1 4 5 9 12 16 19 19 23 28 32 34
11 11 12 13 14 17 18 15 12 13 12 6 3 3 3 2 2 3 3 2 2 3 4 5 1 3 3 2 3 3 1 4 3 2 1 1 11 16 14 11 9 8 6 5 10 13 17 16 17 21 24 27 30 34
11 12 13 14 16 15 15 12 10 10 6 3 2 5 3 3 4 3 2 3 9 9 10 6 4 3 2 2 2 2 3 2 1 1 1 2 1 4 3 1 4 5 8 10 12 16 15 17 21 19 20 26 30 29
10 11 14 12 8 12 15 10 7 7 3 3 3 3 4 8 12 16 11 14 13 10 14 3 6 2 1 1 1 2 1 3 3 3 2 3 4 5 10 12 10 7 8 10 14 12 15 15 18 20 21 25 25 25
11 12 10 10 12 13 16 10 6 4 3 3 5 4 12 10 13 11 7 14 3 7 9 6 1 2 3 3 1 5 2 4 3 4 5 7 8 10 8 7 8 10 10 11 9 9 8 12 18 19 18 22 21 26
10 9 10 12 15 16 14 5 2 3 4 4 6 10 18 21 18 19 16 7 4 15 4 6 4 6 1 1 2 3 4 4 9 9 9 9 8 8 6 4 9 11 10 9 7 6 9 12 17 17 17 19 21 25
8 11 12 13 16 11 4 2 3 4 6 8 8 16 14 16 20 23 12 12 9 4 4 4 2 1 3 3 2 3 4 7 9 9 6 7 6 2 5 9 9 6 3 3 5 7 8 11 12 13 16 15 15 21
8 11 12 14 11 5 2 3 4 4 7 10 14 19 18 20 21 16 4 5 1 11 8 3 2 3 3 3 3 4 6 5 4 4 6 5 3 3 6 6 3 1 1 5 3 6 6 8 10 13 15 13 13 17
5 4 6 10 6 2 3 5 4 5 5 5 17 16 17 19 18 10 10 4 6 7 3 2 5 6 7 10 6 2 2 4 1 5 9 5 3 4 3 4 2 3 5 4 2 5 6 9 9 8 12 14 12 12
0 2 6 9 5 4 4 4 5 6 8 7 16 15 13 13 14 9 5 6 3 5 8 13 12 6 5 4 3 4 4 3 6 6 5 5 6 4 5 2 2 3 3 2 1 5 4 6 9 9 11 10 11 12
2 4 7 4 3 3 5 7 6 8 7 9 12 5 7 5 8 9 6 5 4 5 6 7 8 10 10 8 3 2 3 1 2 6 5 3 4 9 5 6 4 5 6 5 4 7 6 6 5 9 7 9 9 8
4 3 3 3 3 4 7 5 5 5 3 4 4 3 4 3 2 4 2 3 2 4 2 11 7 9 8 9 6 6 3 4 5 7 6 6 7 9 9 6 9 7 5 4 5 4 7 6 7 8 11 9 8 6
3 3 3 3 6 4 5 5 6 5 4 3 2 4 2 3 3 3 3 5 6 10 9 8 10 11 8 10 9 6 7 7 4 1 4 4 8 9 6 7 7 5 6 8 9 11 10 5 6 5 9 11 11 5
3 4 3 6 5 4 4 4 5 5 4 1 2 2 6 8 2 2 2 6 16 15 12 13 12 14 14 11 6 6 8 12 10 6 2 5 1 3 4 5 4 3 1 3 9 6 6 7 3 5 4 8 9 10
3 6 7 6 6 6 5 3 3 3 1 1 1 1 4 3 3 4 3 13 24 19 17 20 19 19 19 15 9 8 4 5 8 10 5 6 7 7 10 10 6 4 1 4 5 6 5 5 1 5 3 8 8 8
4 6 11 11 8 7 5 8 9 4 4 4 1 1 2 1 4 5 7 6 20 16 14 14 14 12 17 10 8 5 5 3 6 7 4 3 1 1 3 3 3 4 3 4 4 4 3 0 6 5 5 6 3 13
8 6 6 12 11 10 4 3 3 4 4 6 7 4 1 3 4 3 3 2 12 13 10 12 10 6 12 12 8 9 10 9 3 1 6 3 6 6 8 1 4 8 10 7 6 6 6 3 3 1 2 3 5 8
8 9 7 12 10 6 9 8 7 7 4 9 6 4 6 6 9 6 4 4 8 10 8 9 8 9 7 10 11 11 13 10 5 4 10 8 11 15 14 8 3 3 2 4 5 4 5 5 3 3 4 7 7 2
11 16 6 6 4 5 13 10 14 12 11 14 16 9 10 18 19 12 8 7 8 18 12 10 10 9 9 10 9 7 10 10 12 8 7 10 10 10 11 11 6 4 1 4 5 5 8 10 8 6 6 3 4 4
7 13 8 8 6 20 21 17 16 16 19 24 22 25 26 26 16 14 12 11 11 11 18 18 16 14 16 15 16 18 13 10 14 13 2 8 8 6 8 7 7 5 3 2 2 4 5 7 3 1 3 6 5 6
10 14 17 9 18 26 22 23 23 22 20 19 19 18 18 16 17 19 21 15 19 18 13 22 22 15 15 14 11 14 9 7 12 10 6 6 10 7 9 8 6 11 6 5 7 10 14 12 4 2 2 5 6 6
21 20 20 14 14 16 17 11 9 14 19 21 24 24 24 23 18 24 21 20 18 19 17 11 19 13 15 13 15 9 5 6 8 11 6 7 6 5 7 10 10 11 6 8 6 4 4 2 9 2 3 5 5 8
Wind_Direction
338 338 341 344 347 348 349 348 347 347 345 346 350 352 350 351 352 20 50 12 7 309 300 20 21 19 34 49 99 324 35 13 33 58 109 267 132 316 53 328 61 97 98 70 77 89 187 337 12 90 150 107 72 58
339 338 340 344 347 348 348 346 348 347 345 343 344 346 344 345 345 351 5 349 292 258 257 305 333 301 199 38 346 23 116 126 109 85 31 19 5 16 30 23 354 35 168 150 125 166 16 73 95 96 95 77 49 27
340 340 340 342 345 345 345 346 347 346 344 342 341 339 337 335 337 348 348 352 18 328 290 270 241 153 151 196 259 122 90 89 108 70 163 198 56 118 74 254 74 338 48 106 78 8 78 70 66 62 58 59 39 14
338 339 340 340 340 342 344 344 343 340 339 337 336 334 330 328 328 351 65 17 24 330 293 301 132 240 225 236 217 131 117 120 106 120 105 121 164 151 201 193 131 205 64 96 74 41 82 63 61 46 26 357 338 322
339 338 338 340 342 343 343 341 340 338 337 336 334 331 324 322 319 328 173 55 17 359 292 295 265 211 251 210 246 196 154 143 76 104 77 237 247 77 342 76 23 30 170 121 184 117 125 83 22 5 353 345 336 323
338 336 336 340 341 343 344 347 345 340 337 335 331 326 322 316 282 172 208 282 301 321 297 319 15 161 182 251 155 167 145 169 147 94 211 280 18 88 97 121 157 106 106 129 142 112 54 2 336 337 341 328 318 315
332 334 333 335 338 342 347 348 348 344 337 334 328 319 313 310 273 245 219 312 322 325 296 310 305 192 203 168 193 202 195 196 193 210 229 202 14 27 101 164 164 127 122 121 119 72 60 345 336 331 326 319 312 309
327 329 329 331 337 339 340 340 343 346 340 335 328 319 310 297 301 238 308 324 325 310 256 265 272 165 191 189 229 210 210 209 219 210 200 185 300 122 207 199 152 137 122 95 59 17 334 312 309 301 297 303 313 318
322 326 328 331 338 341 340 338 342 342 339 340 342 354 25 54 303 302 296 298 294 246 255 294 233 233 177 216 243 197 190 143 218 176 216 148 264 208 218 159 153 144 128 109 96 322 305 296 285 296 311 320 325 325
320 323 329 334 342 345 343 344 345 344 335 343 341 347 352 347 308 293 268 258 251 210 236 241 268 264 189 197 253 152 162 199 145 243 187 143 225 240 186 170 148 136 128 127 61 321 293 278 296 311 318 320 325 323
317 321 321 324 334 343 345 346 339 337 338 334 331 311 310 315 308 252 248 187 209 246 222 233 236 256 16 129 192 115 165 360 34 270 143 236 269 170 158 151 148 153 159 159 312 310 306 308 316 321 314 316 317 315
309 315 316 318 323 328 333 333 343 344 344 323 303 299 302 292 268 280 232 262 188 238 199 206 220 205 138 66 84 17 115 43 248 292 65 344 268 159 162 149 148 158 117 347 321 313 313 316 316 313 313 315 316 315
304 309 314 318 320 322 321 316 320 331 335 326 306 282 249 246 12 234 235 247 262 245 208 210 111 129 101 98 85 72 93 240 317 31 197 314 70 90 104 100 82 31 3 316 308 308 311 313 315 321 319 323 324 319
300 308 313 316 317 321 321 307 312 328 339 301 278 306 192 239 243 217 276 283 294 293 315 198 88 96 91 73 122 125 241 60 327 254 200 259 51 98 122 227 301 343 327 315 316 320 316 321 317 324 328 331 326 327
299 310 316 318 318 333 338 319 310 321 281 273 289 256 240 253 287 296 305 279 286 325 346 35 61 85 36 102 174 71 294 247 188 203 219 273 324 312 313 301 296 316 311 308 319 314 320 328 332 334 334 329 333 336
301 311 316 322 318 321 327 317 288 296 251 245 235 268 272 293 299 322 341 3 24 347 38 355 315 68 243 181 138 212 200 214 199 204 235 299 296 299 298 293 307 302 299 302 308 314 322 340 344 348 342 338 346 352
303 307 308 311 320 327 320 295 261 244 243 243 241 250 262 274 276 297 308 342 129 192 205 196 194 210 151 103 242 197 216 193 199 238 271 261 274 308 294 275 278 288 294 290 298 302 320 330 338 347 343 349 1 14
288 285 304 319 324 336 337 266 258 256 250 252 259 272 288 285 289 299 288 275 246 269 63 309 277 109 186 213 251 224 244 251 267 269 256 285 293 280 255 274 277 284 294 315 328 342 346 344 357 6 351 1 21 31
286 298 306 312 323 333 300 264 232 265 257 271 272 288 293 300 307 312 299 29 220 206 166 179 122 192 225 212 250 286 260 263 293 300 237 207 236 257 271 271 251 314 312 334 10 22 14 11 24 24 13 11 26 35
307 328 335 326 311 300 285 271 242 265 272 293 300 297 304 296 298 285 299 284 178 131 93 235 203 228 260 292 272 258 261 210 275 115 156 189 189 232 302 316 237 248 351 325 266 5 337 332 338 334 349 14 13 28
338 331 350 353 346 245 262 283 261 253 289 272 287 307 301 300 297 252 255 265 233 199 198 226 250 279 248 239 146 196 219 234 221 237 219 209 208 235 222 214 182 163 280 280 265 337 7 344 343 357 341 340 6 18
213 298 320 320 281 263 263 244 252 284 280 267 295 247 248 251 249 258 254 198 235 241 231 210 194 170 169 185 216 252 199 205 209 199 192 191 235 211 231 255 292 250 268 279 300 304 317 304 353 337 334 339 327 360
264 309 278 239 267 248 265 230 241 247 242 256 257 262 252 267 265 169 267 233 248 256 146 168 145 162 164 144 158 189 225 284 240 202 214 222 244 258 268 289 276 249 282 304 329 324 300 315 342 319 334 342 337 315
251 246 244 237 216 263 266 236 231 257 260 255 263 285 276 246 195 209 236 216 201 178 162 162 165 169 178 187 219 247 242 251 319 119 205 275 244 249 265 261 261 267 274 290 288 284 283 330 323 17 2 6 26 26
226 230 217 242 228 243 243 240 214 228 245 275 314 333 356 343 305 272 254 202 187 182 180 177 181 196 199 200 231 252 232 238 253 242 4 2 263 277 247 236 196 243 209 294 320 328 300 297 312 305 317 0 21 27
238 222 205 219 219 208 218 246 203 205 191 311 2 346 8 28 299 260 299 201 187 186 193 196 206 215 230 234 242 243 249 236 242 260 271 244 226 240 261 240 234 212 358 102 79 60 52 0 87 135 78 41 29 13
243 239 226 233 257 293 277 265 261 184 188 204 173 112 122 147 252 270 298 218 195 187 186 185 198 225 222 226 225 229 229 256 261 223 196 16 301 131 170 49 259 207 192 242 293 314 254 275 71 81 46 0 358 13
242 263 226 248 230 252 245 255 253 228 185 169 165 200 185 298 239 261 298 353 193 179 186 201 219 252 231 225 234 216 231 212 63 186 213 242 209 225 202 193 88 80 82 123 81 67 55 127 179 350 46 35 360 300
234 238 271 264 267 240 235 225 229 251 234 171 168 202 205 236 256 265 240 211 209 202 196 197 217 232 278 230 234 247 251 242 189 283 281 254 219 215 218 222 191 141 106 72 74 80 94 89 54 347 311 332 326 284
245 236 243 245 232 243 244 269 300 295 286 262 242 244 244 265 273 276 254 218 207 216 229 207 227 237 241 237 210 256 264 239 234 236 279 242 227 224 212 214 210 193 248 253 294 307 304 290 291 287 295 292 12 309
228 182 206 228 250 260 260 269 282 283 284 281 271 250 257 274 282 261 242 221 220 226 229 239 233 240 248 248 254 237 261 241 245 247 202 187 204 200 192 192 193 204 245 218 250 272 307 309 326 10 290 338 339 324
225 237 236 244 250 263 269 268 267 270 277 281 280 277 279 274 260 265 243 246 237 235 235 229 233 242 259 267 194 196 205 202 192 219 222 184 188 201 223 210 222 223 236 277 285 292 299 258 249 318 70 15 4 7
216 229 236 253 263 273 281 287 248 257 265 268 269 270 269 264 257 281 277 242 235 222 221 240 231 234 244 219 187 195 212 203 208 205 197 206 221 273 244 215 199 184 234 239 239 357 334 4 214 214 343 14 4 348